Logan, UT

7:40 PM MST on December 13, 2019 (GMT -0700)
Logan-Cache

Weather History for KLGU - October, 2019

Change the Weather History Date:

Monday, October 28, 2019

  Actual Average Record
Temperature  
Mean Temperature 22 °F -  
Max Temperature 34 °F 56 °F 75 °F (1990)
Min Temperature 12 °F 29 °F 19 °F (1970)
Degree Days  
Heating Degree Days 42    
Moisture  
Dew Point 12 °F    
Average Humidity 62    
Maximum Humidity 92    
Minimum Humidity 35    
Precipitation  
Precipitation 0.00 in - - ()
Sea Level Pressure  
Sea Level Pressure 30.13 in    
Wind  
Wind Speed 3 mph ()    
Max Wind Speed 9 mph    
Max Gust Speed -    
Visibility 8.8 miles    
Events Snow    
Averages and records for this station are not official NWS values.
T = Trace of Precipitation, MM = Missing Value Source: Averaged Metar Reports

Daily Weather History Graph

Daily Weather History Graph

Search for Another Location

Airport or City:

Astronomy

Oct. 28, 2019 Rise Set
Actual Time 7:54 AM MDT 6:27 PM MDT
Civil Twilight 7:25 AM MDT 6:55 PM MDT
Nautical Twilight 6:53 AM MDT 7:28 PM MDT
Astronomical Twilight 6:20 AM MDT 8:00 PM MDT
Moon 8:20 AM MDT (10/28) 7:14 PM MDT (10/28)
Length of Visible Light 11h 29m
Length of Day
10h 32m
New Moon, 1% of the Moon is Illuminated
Oct 28
New Moon
Nov 4
First Quarter
Nov 12
Full
Nov 19
Last Quarter
Nov 26
New

Hourly Weather History & Observations

Time (MDT) Temp. Windchill Dew Point Humidity Pressure Visibility Wind Dir Wind Speed Gust Speed Precip Events Conditions
12:51 AM 18.0 °F 12.7 °F 8.1 °F 65% 30.26 in 10.0 mi WNW 3.5 mph - N/A   Clear
1:51 AM 18.0 °F - 9.0 °F 68% 30.26 in 10.0 mi Calm Calm - N/A   Clear
2:51 AM 19.0 °F 13.9 °F 9.0 °F 65% 30.25 in 10.0 mi SW 3.5 mph - N/A   Clear
3:51 AM 17.1 °F 8.7 °F 9.0 °F 71% 30.26 in 10.0 mi SSW 5.8 mph - N/A   Clear
4:51 AM 16.0 °F - 8.1 °F 71% 30.23 in 10.0 mi Calm Calm - N/A   Clear
5:51 AM 16.0 °F 6.3 °F 9.0 °F 74% 30.24 in 10.0 mi SSW 6.9 mph - N/A   Clear
6:51 AM 12.9 °F - 7.0 °F 77% 30.26 in 10.0 mi Calm Calm - N/A   Clear
7:51 AM 15.1 °F - 9.0 °F 77% 30.25 in 10.0 mi Calm Calm - N/A   Clear
8:51 AM 17.1 °F 11.7 °F 12.0 °F 81% 30.25 in 10.0 mi NNE 3.5 mph - N/A   Overcast
10:51 AM 24.1 °F 15.2 °F 12.9 °F 62% 30.25 in 10.0 mi NNW 8.1 mph - N/A   Mostly Cloudy
11:51 AM 27.0 °F 20.5 °F 9.0 °F 47% 30.22 in - NNE 5.8 mph - N/A   Overcast
12:51 PM 30.0 °F - 8.1 °F 40% 30.19 in 10.0 mi Calm Calm - N/A   Mostly Cloudy
1:51 PM 30.9 °F 25.2 °F 8.1 °F 38% 30.14 in 10.0 mi SSE 5.8 mph - N/A   Overcast
2:51 PM 32.0 °F 27.5 °F 10.0 °F 40% 30.09 in 10.0 mi Variable 4.6 mph - N/A   Overcast
3:51 PM 32.0 °F 28.7 °F 10.0 °F 40% 30.08 in 10.0 mi South 3.5 mph - N/A   Overcast
5:51 PM 33.1 °F 27.7 °F 8.1 °F 35% 30.04 in 10.0 mi SSW 5.8 mph - N/A   Overcast
6:51 PM 32.0 °F 25.6 °F 10.9 °F 42% 30.05 in 10.0 mi Variable 6.9 mph - N/A   Overcast
7:51 PM 30.9 °F - 12.9 °F 47% 30.05 in 10.0 mi Calm Calm - N/A   Overcast
8:51 PM 30.0 °F 23.2 °F 16.0 °F 56% 30.03 in 10.0 mi NE 6.9 mph - N/A   Overcast
9:51 PM 30.0 °F 24.1 °F 19.0 °F 64% 30.00 in 10.0 mi East 5.8 mph - N/A   Overcast
10:51 PM 30.0 °F 21.7 °F 18.0 °F 61% 29.98 in 8.0 mi SSW 9.2 mph - 0.00 in Snow Light Snow
11:17 PM 27.0 °F 19.5 °F 21.9 °F 81% 29.90 in 2.5 mi WSW 6.9 mph - 0.00 in Snow Light Snow
11:44 PM 26.1 °F 21.9 °F 24.1 °F 92% 29.90 in 1.5 mi WNW 3.5 mph - 0.00 in Snow Light Snow
11:51 PM 26.1 °F - 24.1 °F 92% 29.96 in 1.2 mi Calm Calm - 0.00 in Snow Light Snow